Location: Augsburg
(48.3836°N, 10.8929°E)
Time: 17:33:18
(UTC+02:00)

ISS - Visible Passes

Search period start: 18 May 2021 00:00
Search period end: 28 May 2021 00:00
Orbit: 417 x 422 km, 51.6° (Epoch: 18 May)

Date Brightness Start Highest point End Pass type
(mag) Time Alt. Az. Time Alt. Az. Time Alt. Az.
18 May -3.1 01:19:14 10° WNW 01:22:33 56° NNE 01:22:53 53° NE visible
18 May -3.1 22:54:35 10° W 22:57:54 57° NNW 23:01:15 10° ENE visible
19 May -2.9 00:31:44 10° WNW 00:35:02 49° N 00:36:27 28° ENE visible
19 May -1.4 02:08:36 10° WNW 02:09:22 16° WNW 02:09:22 16° WNW visible
19 May -3.4 22:07:02 10° WSW 22:10:23 70° NNW 22:13:46 10° ENE visible
19 May -2.7 23:44:13 10° WNW 23:47:29 46° N 23:50:16 13° ENE visible
20 May -2.5 01:21:08 10° WNW 01:23:12 35° WNW 01:23:12 35° WNW visible
20 May -2.7 22:56:40 10° WNW 22:59:55 46° N 23:03:12 10° ENE visible
21 May -3.6 00:33:39 10° WNW 00:37:01 69° NNE 00:37:06 69° NNE visible
21 May -2.8 22:09:05 10° W 22:12:22 49° N 22:15:41 10° ENE visible
21 May -3.2 23:46:11 10° WNW 23:49:30 56° NNE 23:51:03 28° E visible
22 May -1.5 01:23:03 10° WNW 01:23:59 17° W 01:23:59 17° W visible
22 May -2.9 22:58:40 10° WNW 23:01:58 49° N 23:05:02 11° E visible
23 May -3.0 00:35:32 10° WNW 00:37:58 42° W 00:37:58 42° W visible
23 May -2.7 22:11:07 10° WNW 22:14:23 46° N 22:17:40 10° ENE visible
23 May -3.9 23:48:02 10° WNW 23:51:25 90° S 23:51:59 60° ESE visible
24 May -3.5 23:00:33 10° WNW 23:03:55 70° NNE 23:06:01 21° E visible
25 May -1.8 00:37:34 10° W 00:38:56 20° W 00:38:56 20° W visible
25 May -3.2 22:13:03 10° WNW 22:16:24 56° NNE 22:19:43 10° E visible
25 May -3.3 23:49:57 10° WNW 23:53:00 43° SW 23:53:00 43° SW visible
26 May -3.7 23:02:24 10° WNW 23:05:45 65° SSW 23:07:06 32° SE visible
27 May -3.8 22:14:54 10° WNW 22:18:17 90° SSW 22:21:12 13° ESE visible
27 May -1.9 23:52:12 10° W 23:54:09 19° SW 23:54:09 19° SW visible
